• In Hungary
  • List of Countries
  • For 7 days
  • Water Temperature
  • Satellite Maps
  • Weather Map
  • News
  • Weather Widgets
  • user-avatar
    Login

    Hourly Weather Diaserya

    Today, 22 May, Tuesday

    Time Temperature Precipitation Wind Pressure Humidity
    00:00 +10°C° 0 mm 3 mps 751 mmHg 55%
    01:00 +11°C° 0 mm 3 mps 751 mmHg 53%
    02:00 +11°C° 0 mm 4 mps 750 mmHg 55%
    03:00 +11°C° 0 mm 4 mps 750 mmHg 58%
    04:00 +12°C° 0 mm 5 mps 749 mmHg 59%
    05:00 +13°C° 0 mm 5 mps 749 mmHg 59%
    06:00 +14°C° 0 mm 5 mps 750 mmHg 59%
    07:00 +15°C° 0 mm 5 mps 750 mmHg 58%
    08:00 +15°C° 0 mm 5 mps 751 mmHg 52%
    09:00 +16°C° 0 mm 5 mps 751 mmHg 46%
    10:00 +16°C° 0 mm 6 mps 752 mmHg 38%
    11:00 +16°C° 0 mm 6 mps 752 mmHg 33%
    12:00 +16°C° 0 mm 6 mps 753 mmHg 27%
    13:00 +17°C° 0 mm 5 mps 753 mmHg 22%
    14:00 +17°C° 0 mm 5 mps 754 mmHg 22%
    15:00 +17°C° 0 mm 5 mps 754 mmHg 22%
    16:00 +17°C° 0 mm 5 mps 755 mmHg 21%
    17:00 +17°C° 0 mm 4 mps 755 mmHg 23%
    18:00 +17°C° 0 mm 3 mps 755 mmHg 25%
    19:00 +16°C° 0 mm 3 mps 755 mmHg 28%
    20:00 +14°C° 0 mm 2 mps 756 mmHg 33%
    21:00 +12°C° 0 mm 1 mps 756 mmHg 39%
    22:00 +10°C° 0 mm 1 mps 756 mmHg 45%
    23:00 +9°C° 0 mm 1 mps 756 mmHg 46%

    Tomorrow, 23 May, Wednesday

    Time Temperature Precipitation Wind Pressure Humidity
    00:00 +8°C° 0 mm 1 mps 756 mmHg 48%
    01:00 +7°C° 0 mm 0 mps 756 mmHg 49%
    02:00 +7°C° 0 mm 1 mps 756 mmHg 50%
    03:00 +7°C° 0 mm 1 mps 756 mmHg 52%
    04:00 +6°C° 0 mm 2 mps 756 mmHg 53%
    05:00 +8°C° 0 mm 2 mps 755 mmHg 48%
    06:00 +9°C° 0 mm 3 mps 754 mmHg 44%
    07:00 +11°C° 0 mm 3 mps 754 mmHg 40%
    08:00 +12°C° 0 mm 4 mps 753 mmHg 39%
    09:00 +12°C° 0 mm 4 mps 752 mmHg 39%
    10:00 +13°C° 0 mm 4 mps 751 mmHg 39%
    11:00 +14°C° 0.3 mm 5 mps 750 mmHg 48%
    12:00 +15°C° 0.3 mm 5 mps 749 mmHg 57%
    13:00 +16°C° 0.3 mm 5 mps 749 mmHg 66%
    14:00 +17°C° 0.2 mm 5 mps 748 mmHg 66%
    15:00 +17°C° 0.2 mm 5 mps 747 mmHg 65%
    16:00 +17°C° 0.2 mm 5 mps 747 mmHg 65%
    17:00 +19°C° 0 mm 5 mps 746 mmHg 63%
    18:00 +19°C° 0 mm 4 mps 745 mmHg 60%
    19:00 +19°C° 0 mm 3 mps 745 mmHg 58%
    20:00 +18°C° 0.4 mm 3 mps 744 mmHg 66%
    21:00 +17°C° 0.4 mm 3 mps 744 mmHg 75%
    22:00 +14°C° 0.4 mm 3 mps 744 mmHg 83%
    23:00 +13°C° 0.6 mm 3 mps 744 mmHg 87%

    Day after tomorrow, 24 May, Thursday

    Time Temperature Precipitation Wind Pressure Humidity
    00:00 +13°C° 0.6 mm 3 mps 744 mmHg 90%
    01:00 +13°C° 0.6 mm 2 mps 744 mmHg 93%
    02:00 +10°C° 0.2 mm 3 mps 744 mmHg 90%
    03:00 +8°C° 0.2 mm 4 mps 745 mmHg 87%
    04:00 +7°C° 0.2 mm 4 mps 745 mmHg 84%
    05:00 +6°C° 0.1 mm 4 mps 746 mmHg 81%
    06:00 +6°C° 0.1 mm 4 mps 747 mmHg 79%
    07:00 +5°C° 0.1 mm 4 mps 747 mmHg 76%
    08:00 +6°C° 0 mm 4 mps 748 mmHg 67%
    09:00 +7°C° 0 mm 4 mps 748 mmHg 59%
    10:00 +8°C° 0 mm 4 mps 749 mmHg 50%
    11:00 +9°C° 0 mm 5 mps 749 mmHg 47%
    12:00 +9°C° 0 mm 5 mps 750 mmHg 43%
    13:00 +10°C° 0 mm 5 mps 750 mmHg 40%
    14:00 +10°C° 0 mm 5 mps 750 mmHg 40%
    15:00 +10°C° 0 mm 4 mps 750 mmHg 40%
    16:00 +10°C° 0 mm 4 mps 751 mmHg 40%
    17:00 +10°C° 0 mm 4 mps 751 mmHg 41%
    18:00 +8°C° 0 mm 4 mps 751 mmHg 42%
    19:00 +8°C° 0 mm 4 mps 751 mmHg 43%
    20:00 +7°C° 0 mm 3 mps 751 mmHg 49%
    21:00 +6°C° 0 mm 2 mps 751 mmHg 54%
    22:00 +5°C° 0 mm 2 mps 751 mmHg 60%
    23:00 +4°C° 0 mm 2 mps 751 mmHg 63%

    25 May, Friday

    Time Temperature Precipitation Wind Pressure Humidity
    00:00 +4°C° 0 mm 2 mps 752 mmHg 66%
    01:00 +3°C° 0 mm 3 mps 752 mmHg 69%
    02:00 +2°C° 0 mm 3 mps 752 mmHg 70%
    03:00 +1°C° 0 mm 3 mps 752 mmHg 71%
    04:00 0°C° 0 mm 3 mps 752 mmHg 72%
    05:00 +1°C° 0 mm 3 mps 753 mmHg 66%
    06:00 +1°C° 0 mm 3 mps 753 mmHg 61%
    07:00 +1°C° 0 mm 4 mps 753 mmHg 55%
    08:00 +1°C° 0 mm 4 mps 753 mmHg 53%
    09:00 +3°C° 0 mm 4 mps 753 mmHg 50%
    10:00 +3°C° 0 mm 4 mps 754 mmHg 48%
    11:00 +4°C° 0 mm 4 mps 754 mmHg 45%
    12:00 +4°C° 0 mm 4 mps 754 mmHg 42%
    13:00 +5°C° 0 mm 5 mps 754 mmHg 38%
    14:00 +6°C° 0 mm 5 mps 754 mmHg 37%
    15:00 +7°C° 0 mm 5 mps 754 mmHg 35%
    16:00 +7°C° 0 mm 5 mps 754 mmHg 33%
    17:00 +7°C° 0 mm 4 mps 754 mmHg 35%
    18:00 +7°C° 0 mm 4 mps 754 mmHg 37%
    19:00 +7°C° 0 mm 4 mps 755 mmHg 38%
    20:00 +5°C° 0 mm 3 mps 755 mmHg 46%
    21:00 +4°C° 0 mm 2 mps 754 mmHg 53%
    22:00 +4°C° 0 mm 1 mps 754 mmHg 60%
    23:00 +4°C° 0.1 mm 1 mps 754 mmHg 63%

    26 May, Saturday

    Time Temperature Precipitation Wind Pressure Humidity
    00:00 +3°C° 0.1 mm 2 mps 754 mmHg 66%
    01:00 +3°C° 0.1 mm 2 mps 754 mmHg 69%
    02:00 +3°C° 0.1 mm 2 mps 754 mmHg 75%
    03:00 +3°C° 0.1 mm 2 mps 754 mmHg 81%
    04:00 +2°C° 0.1 mm 2 mps 754 mmHg 87%
    05:00 +4°C° 0 mm 2 mps 754 mmHg 81%
    06:00 +5°C° 0 mm 3 mps 754 mmHg 75%
    07:00 +7°C° 0 mm 3 mps 754 mmHg 69%
    08:00 +8°C° 0 mm 3 mps 754 mmHg 64%
    09:00 +9°C° 0 mm 3 mps 754 mmHg 58%
    10:00 +10°C° 0 mm 4 mps 754 mmHg 53%
    11:00 +10°C° 0 mm 4 mps 754 mmHg 51%
    12:00 +11°C° 0 mm 4 mps 754 mmHg 49%
    13:00 +11°C° 0 mm 4 mps 754 mmHg 47%
    14:00 +12°C° 0 mm 3 mps 754 mmHg 45%
    15:00 +12°C° 0 mm 3 mps 753 mmHg 43%
    16:00 +13°C° 0 mm 3 mps 753 mmHg 41%
    17:00 +13°C° 0 mm 3 mps 753 mmHg 42%
    18:00 +13°C° 0 mm 3 mps 752 mmHg 42%
    19:00 +14°C° 0 mm 2 mps 752 mmHg 42%
    20:00 +13°C° 0 mm 2 mps 752 mmHg 50%
    21:00 +10°C° 0 mm 2 mps 751 mmHg 57%
    22:00 +8°C° 0 mm 2 mps 751 mmHg 64%
    23:00 +8°C° 0 mm 2 mps 750 mmHg 65%

    27 May, Sunday

    Time Temperature Precipitation Wind Pressure Humidity
    00:00 +8°C° 0 mm 2 mps 749 mmHg 65%
    01:00 +8°C° 0 mm 3 mps 748 mmHg 66%
    02:00 +8°C° 0.1 mm 3 mps 748 mmHg 65%
    03:00 +8°C° 0.1 mm 4 mps 747 mmHg 63%
    04:00 +8°C° 0.1 mm 4 mps 746 mmHg 62%
    05:00 +9°C° 1 mm 3 mps 745 mmHg 69%
    06:00 +9°C° 1 mm 3 mps 745 mmHg 77%
    07:00 +8°C° 1 mm 2 mps 745 mmHg 85%
    08:00 +8°C° 0.2 mm 3 mps 745 mmHg 80%
    09:00 +9°C° 0.2 mm 3 mps 745 mmHg 74%
    10:00 +8°C° 0.2 mm 4 mps 744 mmHg 69%
    11:00 +10°C° 0.1 mm 4 mps 745 mmHg 59%
    12:00 +10°C° 0.1 mm 5 mps 745 mmHg 50%
    13:00 +13°C° 0.1 mm 5 mps 745 mmHg 40%
    14:00 +11°C° 0.2 mm 6 mps 745 mmHg 40%
    15:00 +11°C° 0.2 mm 6 mps 746 mmHg 39%
    16:00 +11°C° 0.2 mm 6 mps 746 mmHg 38%
    17:00 +10°C° 0 mm 6 mps 746 mmHg 40%
    18:00 +9°C° 0 mm 5 mps 746 mmHg 42%
    19:00 +8°C° 0 mm 5 mps 746 mmHg 44%
    20:00 +7°C° 0 mm 4 mps 747 mmHg 50%
    21:00 +6°C° 0 mm 4 mps 747 mmHg 56%
    22:00 +4°C° 0 mm 3 mps 747 mmHg 63%
    23:00 +4°C° 0 mm 3 mps 748 mmHg 65%
    Show more